Location: Bemmer
(51.5498°N, 5.6249°E)
Time: 13:29:14
(UTC+00:00)

Cosmos 2369 Rocket - Pass Details

Date: 03 March 2021
Orbit: 829 x 852 km, 71.0° (Epoch: 10 April)

Event Time Altitude Azimuth Distance (km) Brightness Sun altitude
Rises 21:27:41 0° 330° (NNW) 3,385 6.2 -36.3°
Reaches altitude 10° 21:30:13 10° 336° (NNW) 2,448 5.3 -36.6°
Enters shadow 21:32:52 27° 351° (N) 1,557 3.9 -36.9°
